Location: Azenweiler
(47.8027°N, 9.4096°E)
Time: 02:29:03
(UTC+00:00)

USA 59 Rocket - Pass Details

Date: 10 December 2025
Orbit: 369 x 1675 km, 63.3° (Epoch: 12 January)

Event Time Altitude Azimuth Distance (km) Brightness Sun altitude
Exits shadow 03:08:24 11° 113° (ESE) 1,910 3.1 -37.8°
Drops below altitude 10° 03:08:35 10° 114° (ESE) 1,980 3.2 -37.8°
Sets 03:11:23 0° 122° (ESE) 3,106 4.3 -37.3°
